Weather History for KGEZ - July, 2013

Change the Weather History Date:

Tuesday, July 9, 2013

  Actual Average Record
Temperature  
Mean Temperature 83 °F 74 °F  
Max Temperature 90 °F 85 °F 92 °F (2012)
Min Temperature 75 °F 64 °F 55 °F (2005)
Degree Days  
Heating Degree Days 0 0  
Month to date heating degree days 0 0  
Since 1 June heating degree days 5 15  
Since 1 July heating degree days 0 0  
Cooling Degree Days 18 9  
Month to date cooling degree days 86 81  
Year to date cooling degree days 520 371  
Since 1 June cooling degree days 352 290  
Growing Degree Days 32 (Base 50)    
Moisture  
Dew Point 73 °F    
Average Humidity 73    
Maximum Humidity 87    
Minimum Humidity 59    
Precipitation  
Precipitation T in 0.16 in 0.91 in (2003)
Month to date precipitation 0.47 1.23  
Year to date precipitation 17.26 23.41  
Sea Level Pressure  
Sea Level Pressure 30.01 in    
Wind  
Wind Speed 8 mph (SW)    
Max Wind Speed 16 mph    
Max Gust Speed 21 mph    
Visibility 10 miles    
Events Rain    
T = Trace of Precipitation, MM = Missing Value Source: NWS Daily Summary

Daily Weather History Graph

Daily Weather History Graph

Search for Another Location

Airport or City:

Trip Planner

Search our weather history database for the weather conditions in past years. The results will help you decide how hot, cold, wet, or windy it might be!

Date:

Astronomy

Jul. 09, 2013 Rise Set
Actual Time 6:24 AM EDT 9:12 PM EDT
Civil Twilight 5:52 AM EDT 9:44 PM EDT
Nautical Twilight 5:11 AM EDT 10:24 PM EDT
Astronomical Twilight 4:26 AM EDT 11:10 PM EDT
Moon 7:47 AM EDT (7/9) 9:50 PM EDT (7/9)
Length of Visible Light 15h 52m
Length of Day
14h 48m
New Moon, 2% of the Moon is Illuminated
Jul 9
New Moon
Jul 15
First Quarter
Jul 22
Full
Jul 29
Last Quarter
Aug 6
New

Hourly Weather History & Observations

Time (EDT) Temp. Heat Index Dew Point Humidity Pressure Visibility Wind Dir Wind Speed Gust Speed Precip Events Conditions
12:53 AM 78.1 °F - 71.1 °F 79% 30.05 in 10.0 mi South 5.8 mph - N/A   Overcast
1:53 AM 77.0 °F - 71.1 °F 82% 30.04 in 9.0 mi South 6.9 mph - N/A   Partly Cloudy
2:53 AM 77.0 °F - 71.1 °F 82% 30.03 in 10.0 mi SSW 6.9 mph - N/A   Overcast
3:53 AM 77.0 °F - 71.1 °F 82% 30.03 in 10.0 mi SSW 6.9 mph - N/A   Overcast
4:53 AM 75.9 °F - 71.1 °F 85% 30.04 in 10.0 mi SSW 5.8 mph - N/A   Overcast
5:53 AM 75.9 °F - 71.1 °F 85% 30.04 in 9.0 mi SSW 5.8 mph - N/A   Mostly Cloudy
6:53 AM 75.0 °F - 71.1 °F 87% 30.04 in 7.0 mi SSW 6.9 mph - N/A   Clear
7:53 AM 77.0 °F - 72.0 °F 84% 30.04 in 10.0 mi South 6.9 mph - N/A   Clear
8:53 AM 81.0 °F 85.2 °F 72.0 °F 74% 30.04 in 10.0 mi SW 10.4 mph - N/A   Mostly Cloudy
9:53 AM 82.0 °F 86.7 °F 72.0 °F 71% 30.04 in 10.0 mi WSW 8.1 mph - N/A   Overcast
10:53 AM 84.0 °F 90.2 °F 73.0 °F 69% 30.04 in 10.0 mi WSW 8.1 mph - N/A   Scattered Clouds
11:53 AM 82.0 °F 87.4 °F 73.0 °F 74% 30.04 in 10.0 mi WSW 6.9 mph - 0.00 in Rain Light Rain
12:53 PM 86.0 °F 95.1 °F 75.0 °F 70% 30.03 in 10.0 mi SW 10.4 mph - 0.00 in   Scattered Clouds
1:53 PM 84.9 °F 91.4 °F 73.0 °F 67% 30.03 in 10.0 mi West 11.5 mph - N/A   Overcast
2:53 PM 87.1 °F 95.4 °F 73.9 °F 65% 30.01 in 10.0 mi SW 10.4 mph - N/A   Clear
3:53 PM 89.1 °F 98.0 °F 73.9 °F 61% 29.99 in 10.0 mi SW 12.7 mph - N/A   Partly Cloudy
4:53 PM 88.0 °F 96.5 °F 73.9 °F 63% 29.98 in 10.0 mi WSW 11.5 mph - N/A   Scattered Clouds
5:53 PM 88.0 °F 95.6 °F 73.0 °F 61% 29.97 in 10.0 mi SW 13.8 mph - N/A   Partly Cloudy
6:53 PM 87.1 °F 94.5 °F 73.0 °F 63% 29.95 in 10.0 mi SSW 10.4 mph - N/A   Clear
7:53 PM 84.9 °F 92.1 °F 73.9 °F 69% 29.96 in 10.0 mi SSW 6.9 mph - N/A   Clear
8:53 PM 82.9 °F 90.8 °F 75.9 °F 79% 29.95 in 10.0 mi SSW 4.6 mph - 0.00 in   Partly Cloudy
9:53 PM 82.0 °F 88.6 °F 75.0 °F 79% 29.95 in 10.0 mi South 5.8 mph - N/A   Clear
10:53 PM 82.0 °F 87.9 °F 73.9 °F 76% 29.96 in 10.0 mi South 8.1 mph - N/A   Clear
11:53 PM 81.0 °F 86.2 °F 73.9 °F 79% 29.96 in 10.0 mi South 8.1 mph - N/A   Scattered Clouds